Time,TemperatureF,DewpointF,PressureIn,WindDirection,WindDirectionDegrees,WindSpeedMPH,WindSpeedGustMPH,Humidity,HourlyPrecipIn,Conditions,Clouds,dailyrainin,SoftwareType,DateUTC
2014-01-07 00:02:00,70.7,45.1,30.03,East,100,12.0,19.0,40,0.00,,,0.00,meteohub,2014-01-07 10:02:00,
2014-01-07 00:07:00,70.5,45.7,30.02,NE,49,4.0,18.0,41,0.00,,,0.00,meteohub,2014-01-07 10:07:00,
2014-01-07 00:12:00,70.2,46.0,30.01,NNW,345,12.0,18.0,42,0.00,,,0.00,meteohub,2014-01-07 10:12:00,
2014-01-07 00:17:00,69.8,43.0,30.01,North,354,4.0,18.0,38,0.00,,,0.00,meteohub,2014-01-07 10:17:00,
2014-01-07 00:22:00,69.6,42.8,30.00,NE,56,8.0,16.0,38,0.00,,,0.00,meteohub,2014-01-07 10:22:00,
2014-01-07 00:27:00,70.3,46.8,30.01,NNE,23,5.0,16.0,43,0.00,,,0.00,meteohub,2014-01-07 10:27:00,
2014-01-07 00:32:00,70.7,44.6,30.01,WNW,288,2.0,20.0,39,0.00,,,0.00,meteohub,2014-01-07 10:32:00,
2014-01-07 00:37:00,70.7,45.1,30.01,North,349,2.0,20.0,40,0.00,,,0.00,meteohub,2014-01-07 10:37:00,
2014-01-07 00:42:00,70.0,47.1,30.00,NE,46,6.0,20.0,44,0.00,,,0.00,meteohub,2014-01-07 10:42:00,
2014-01-07 00:47:00,69.6,47.3,30.01,NE,56,3.0,16.0,45,0.00,,,0.00,meteohub,2014-01-07 10:47:00,
2014-01-07 00:52:00,69.1,52.2,30.01,ENE,72,5.0,16.0,55,0.00,,,0.00,meteohub,2014-01-07 10:52:00,
2014-01-07 00:57:00,68.5,50.2,30.01,NE,44,3.0,16.0,52,0.00,,,0.00,meteohub,2014-01-07 10:57:00,
2014-01-07 01:02:00,69.6,47.8,30.00,WNW,302,6.0,8.0,46,0.00,,,0.00,meteohub,2014-01-07 11:02:00,
2014-01-07 01:07:00,69.8,48.0,30.00,NE,46,5.0,8.0,46,0.00,,,0.00,meteohub,2014-01-07 11:07:00,
2014-01-07 01:13:00,69.4,47.8,30.00,NNE,29,5.0,10.0,46,0.00,,,0.00,meteohub,2014-01-07 11:13:00,
2014-01-07 01:18:00,68.7,47.7,29.99,East,96,3.0,10.0,47,0.00,,,0.00,meteohub,2014-01-07 11:18:00,
2014-01-07 01:23:00,68.4,47.3,29.99,NNE,30,2.0,8.0,47,0.00,,,0.00,meteohub,2014-01-07 11:23:00,
2014-01-07 01:28:00,67.6,48.4,29.99,NE,56,3.0,6.0,50,0.00,,,0.00,meteohub,2014-01-07 11:28:00,
2014-01-07 01:33:00,66.7,51.4,30.00,North,1,3.0,4.0,58,0.00,,,0.00,meteohub,2014-01-07 11:33:00,
2014-01-07 01:38:00,66.7,53.8,30.01,ENE,73,5.0,5.0,63,0.00,,,0.00,meteohub,2014-01-07 11:38:00,
2014-01-07 01:43:00,67.8,52.0,30.01,ENE,76,5.0,12.0,57,0.00,,,0.00,meteohub,2014-01-07 11:43:00,
2014-01-07 01:48:00,69.1,53.2,30.01,NE,51,6.0,12.0,57,0.00,,,0.00,meteohub,2014-01-07 11:48:00,
2014-01-07 01:53:00,70.0,54.0,30.00,NE,50,3.0,16.0,57,0.00,,,0.00,meteohub,2014-01-07 11:53:00,
2014-01-07 01:58:00,70.2,53.8,30.00,East,88,1.0,18.0,56,0.00,,,0.00,meteohub,2014-01-07 11:58:00,
2014-01-07 02:03:00,69.8,53.4,30.00,North,11,2.0,18.0,56,0.00,,,0.00,meteohub,2014-01-07 12:03:00,
2014-01-07 02:08:00,69.3,52.9,30.00,North,11,2.0,13.0,56,0.00,,,0.00,meteohub,2014-01-07 12:08:00,
2014-01-07 02:13:00,68.7,52.9,30.00,WNW,300,0.0,13.0,57,0.00,,,0.00,meteohub,2014-01-07 12:13:00,
2014-01-07 02:18:00,68.5,53.2,29.99,West,262,3.0,6.0,58,0.00,,,0.00,meteohub,2014-01-07 12:18:00,
2014-01-07 02:24:00,68.2,53.8,29.99,WNW,296,4.0,6.0,60,0.00,,,0.00,meteohub,2014-01-07 12:24:00,
2014-01-07 02:29:00,67.8,54.0,29.99,West,274,4.0,7.0,61,0.00,,,0.00,meteohub,2014-01-07 12:29:00,
2014-01-07 02:34:00,68.2,54.1,29.99,ENE,60,2.0,7.0,61,0.00,,,0.00,meteohub,2014-01-07 12:34:00,
2014-01-07 02:39:00,67.5,53.6,29.99,East,96,1.0,7.0,61,0.00,,,0.00,meteohub,2014-01-07 12:39:00,
2014-01-07 02:44:00,66.7,53.8,29.99,East,81,3.0,7.0,63,0.00,,,0.00,meteohub,2014-01-07 12:44:00,
2014-01-07 02:49:00,66.0,54.3,29.99,ENE,58,2.0,5.0,66,0.00,,,0.00,meteohub,2014-01-07 12:49:00,
2014-01-07 02:54:00,65.8,54.1,29.99,East,86,4.0,4.0,66,0.00,,,0.00,meteohub,2014-01-07 12:54:00,
2014-01-07 02:59:00,65.8,54.5,29.99,SSE,160,2.0,4.0,67,0.00,,,0.00,meteohub,2014-01-07 12:59:00,
2014-01-07 03:04:00,66.2,54.5,29.99,ENE,73,2.0,4.0,66,0.00,,,0.00,meteohub,2014-01-07 13:04:00,
2014-01-07 03:09:00,66.4,54.7,29.99,SE,141,2.0,4.0,66,0.00,,,0.00,meteohub,2014-01-07 13:09:00,
2014-01-07 03:14:00,66.7,55.0,29.99,East,100,2.0,4.0,66,0.00,,,0.00,meteohub,2014-01-07 13:14:00,
2014-01-07 03:19:00,68.4,56.5,29.99,NNW,335,8.0,10.0,66,0.00,,,0.00,meteohub,2014-01-07 13:19:00,
2014-01-07 03:24:00,68.9,56.3,29.99,NW,323,8.0,13.0,64,0.00,,,0.00,meteohub,2014-01-07 13:24:00,
2014-01-07 03:29:00,69.3,57.0,29.99,NE,34,9.0,13.0,65,0.00,,,0.00,meteohub,2014-01-07 13:29:00,
2014-01-07 03:34:00,68.7,57.4,29.99,East,82,3.0,17.0,67,0.00,,,0.00,meteohub,2014-01-07 13:34:00,
2014-01-07 03:39:00,68.2,57.2,29.99,NNE,27,5.0,17.0,68,0.00,,,0.00,meteohub,2014-01-07 13:39:00,
2014-01-07 03:45:00,68.0,57.0,29.99,NNE,33,2.0,13.0,68,0.00,,,0.00,meteohub,2014-01-07 13:45:00,
2014-01-07 03:50:00,68.2,57.6,29.99,ENE,64,3.0,12.0,69,0.00,,,0.00,meteohub,2014-01-07 13:50:00,
2014-01-07 03:55:00,68.2,57.6,29.99,ESE,120,4.0,10.0,69,0.00,,,0.00,meteohub,2014-01-07 13:55:00,
2014-01-07 04:00:00,68.0,57.4,29.99,SE,131,1.0,9.0,69,0.00,,,0.00,meteohub,2014-01-07 14:00:00,
2014-01-07 04:05:00,68.5,57.9,30.00,North,358,11.0,15.0,69,0.00,,,0.00,meteohub,2014-01-07 14:05:00,
2014-01-07 04:10:00,68.7,58.5,30.00,NNW,347,3.0,15.0,70,0.00,,,0.00,meteohub,2014-01-07 14:10:00,
2014-01-07 04:15:00,68.7,58.5,30.00,East,99,2.0,15.0,70,0.00,,,0.00,meteohub,2014-01-07 14:15:00,
2014-01-07 04:20:00,68.7,59.0,30.00,ESE,105,3.0,11.0,71,0.00,,,0.00,meteohub,2014-01-07 14:20:00,
2014-01-07 04:25:00,68.5,58.8,30.00,ESE,114,3.0,12.0,71,0.00,,,0.00,meteohub,2014-01-07 14:25:00,
2014-01-07 04:30:00,68.5,58.8,30.00,NE,44,0.0,12.0,71,0.00,,,0.00,meteohub,2014-01-07 14:30:00,
2014-01-07 04:35:00,68.2,58.1,30.00,SE,132,1.0,12.0,70,0.00,,,0.00,meteohub,2014-01-07 14:35:00,
2014-01-07 04:40:00,68.0,57.9,30.00,WSW,240,2.0,9.0,70,0.00,,,0.00,meteohub,2014-01-07 14:40:00,
2014-01-07 04:45:00,67.5,56.5,30.00,West,260,0.0,8.0,68,0.00,,,0.00,meteohub,2014-01-07 14:45:00,
2014-01-07 04:50:00,67.3,57.6,30.00,SE,133,1.0,5.0,71,0.00,,,0.00,meteohub,2014-01-07 14:50:00,
2014-01-07 04:56:00,66.9,57.2,30.00,ESE,118,5.0,5.0,71,0.00,,,0.00,meteohub,2014-01-07 14:56:00,
2014-01-07 05:01:00,66.9,56.8,30.00,East,91,3.0,6.0,70,0.00,,,0.00,meteohub,2014-01-07 15:01:00,
2014-01-07 05:06:00,67.8,56.8,30.00,NE,48,0.0,6.0,68,0.00,,,0.00,meteohub,2014-01-07 15:06:00,
2014-01-07 05:11:00,68.2,57.2,30.01,ENE,69,0.0,6.0,68,0.00,,,0.00,meteohub,2014-01-07 15:11:00,
2014-01-07 05:16:00,68.0,57.0,30.01,ESE,105,3.0,6.0,68,0.00,,,0.00,meteohub,2014-01-07 15:16:00,
2014-01-07 05:21:00,67.8,57.2,30.01,NE,56,1.0,4.0,69,0.00,,,0.00,meteohub,2014-01-07 15:21:00,
2014-01-07 05:26:00,67.6,57.0,30.01,ESE,108,1.0,6.0,69,0.00,,,0.00,meteohub,2014-01-07 15:26:00,
2014-01-07 05:31:00,67.6,57.0,30.01,ENE,78,3.0,6.0,69,0.00,,,0.00,meteohub,2014-01-07 15:31:00,
2014-01-07 05:36:00,68.2,57.6,30.01,SE,146,4.0,7.0,69,0.00,,,0.00,meteohub,2014-01-07 15:36:00,
2014-01-07 05:41:00,68.4,57.7,30.01,SE,136,2.0,10.0,69,0.00,,,0.00,meteohub,2014-01-07 15:41:00,
2014-01-07 05:46:00,68.4,57.4,30.01,SSE,152,5.0,10.0,68,0.00,,,0.00,meteohub,2014-01-07 15:46:00,
2014-01-07 05:52:00,68.2,57.6,30.01,ESE,123,5.0,10.0,69,0.00,,,0.00,meteohub,2014-01-07 15:52:00,
2014-01-07 05:57:00,68.0,57.4,30.01,SE,131,1.0,8.0,69,0.00,,,0.00,meteohub,2014-01-07 15:57:00,
2014-01-07 06:02:00,67.6,57.0,30.01,SSW,201,0.0,8.0,69,0.00,,,0.00,meteohub,2014-01-07 16:02:00,
2014-01-07 06:07:00,67.1,56.7,30.01,ESE,103,5.0,7.0,69,0.00,,,0.00,meteohub,2014-01-07 16:07:00,
2014-01-07 06:12:00,66.7,56.7,30.02,East,98,2.0,7.0,70,0.00,,,0.00,meteohub,2014-01-07 16:12:00,
2014-01-07 06:17:00,66.7,56.3,30.02,ESE,112,5.0,7.0,69,0.00,,,0.00,meteohub,2014-01-07 16:17:00,
2014-01-07 06:22:00,67.6,56.3,30.02,ENE,77,11.0,11.0,67,0.00,,,0.00,meteohub,2014-01-07 16:22:00,
2014-01-07 06:27:00,68.4,56.1,30.01,NE,53,3.0,16.0,65,0.00,,,0.00,meteohub,2014-01-07 16:27:00,
2014-01-07 06:32:00,68.2,55.9,30.02,ESE,108,4.0,16.0,65,0.00,,,0.00,meteohub,2014-01-07 16:32:00,
2014-01-07 06:37:00,68.2,55.6,30.02,ENE,65,5.0,16.0,64,0.00,,,0.00,meteohub,2014-01-07 16:37:00,
2014-01-07 06:42:00,68.2,55.0,30.03,ESE,118,4.0,13.0,63,0.00,,,0.00,meteohub,2014-01-07 16:42:00,
2014-01-07 06:47:00,68.2,55.0,30.03,SE,135,3.0,13.0,63,0.00,,,0.00,meteohub,2014-01-07 16:47:00,
2014-01-07 06:52:00,68.2,54.7,30.03,ENE,71,8.0,13.0,62,0.00,,,0.00,meteohub,2014-01-07 16:52:00,
2014-01-07 06:57:00,68.4,54.9,30.04,ENE,61,3.0,14.0,62,0.00,,,0.00,meteohub,2014-01-07 16:57:00,
2014-01-07 07:02:00,68.4,54.9,30.04,ESE,104,7.0,14.0,62,0.00,,,0.00,meteohub,2014-01-07 17:02:00,
2014-01-07 07:07:00,68.4,54.3,30.04,SE,128,6.0,14.0,61,0.00,,,0.00,meteohub,2014-01-07 17:07:00,
2014-01-07 07:12:00,68.5,54.1,30.04,ESE,105,8.0,17.0,60,0.00,,,0.00,meteohub,2014-01-07 17:12:00,
2014-01-07 07:17:00,68.7,53.4,30.05,ENE,61,6.0,17.0,58,0.00,,,0.00,meteohub,2014-01-07 17:17:00,
2014-01-07 07:22:00,68.5,52.7,30.05,East,86,0.0,16.0,57,0.00,,,0.00,meteohub,2014-01-07 17:22:00,
2014-01-07 07:27:00,68.7,52.9,30.05,ENE,61,2.0,14.0,57,0.00,,,0.00,meteohub,2014-01-07 17:27:00,
2014-01-07 07:32:00,68.7,52.9,30.05,NE,46,11.0,12.0,57,0.00,,,0.00,meteohub,2014-01-07 17:32:00,
2014-01-07 07:37:00,69.1,53.2,30.05,ESE,108,5.0,12.0,57,0.00,,,0.00,meteohub,2014-01-07 17:37:00,
2014-01-07 07:42:00,68.9,52.0,30.05,ENE,58,5.0,12.0,55,0.00,,,0.00,meteohub,2014-01-07 17:42:00,
2014-01-07 07:47:00,69.1,51.8,30.05,SE,127,4.0,12.0,54,0.00,,,0.00,meteohub,2014-01-07 17:47:00,
2014-01-07 07:52:00,69.4,50.0,30.05,NE,56,8.0,11.0,50,0.00,,,0.00,meteohub,2014-01-07 17:52:00,
2014-01-07 07:57:00,69.6,49.6,30.05,East,91,4.0,11.0,49,0.00,,,0.00,meteohub,2014-01-07 17:57:00,
2014-01-07 08:02:00,69.6,50.2,30.05,East,92,3.0,11.0,50,0.00,,,0.00,meteohub,2014-01-07 18:02:00,
2014-01-07 08:07:00,69.6,50.7,30.05,NNE,32,7.0,10.0,51,0.00,,,0.00,meteohub,2014-01-07 18:07:00,
2014-01-07 08:12:00,70.2,54.1,30.04,NNE,15,2.0,13.0,57,0.00,,,0.00,meteohub,2014-01-07 18:12:00,
2014-01-07 08:17:00,70.5,54.5,30.04,NE,37,8.0,14.0,57,0.00,,,0.00,meteohub,2014-01-07 18:17:00,
2014-01-07 08:22:00,70.9,54.9,30.04,East,81,9.0,14.0,57,0.00,,,0.00,meteohub,2014-01-07 18:22:00,
2014-01-07 08:27:00,71.2,53.2,30.04,NNE,19,6.0,17.0,53,0.00,,,0.00,meteohub,2014-01-07 18:27:00,
2014-01-07 08:32:00,71.4,52.3,30.04,NNE,32,16.0,19.0,51,0.00,,,0.00,meteohub,2014-01-07 18:32:00,
2014-01-07 08:37:00,72.0,52.3,30.04,NNW,335,15.0,20.0,50,0.00,,,0.00,meteohub,2014-01-07 18:37:00,
2014-01-07 08:42:00,72.3,51.4,30.05,NW,305,7.0,26.0,48,0.00,,,0.00,meteohub,2014-01-07 18:42:00,
2014-01-07 08:47:00,72.3,52.2,30.05,North,349,11.0,26.0,49,0.00,,,0.00,meteohub,2014-01-07 18:47:00,
2014-01-07 08:52:00,72.7,52.3,30.05,North,8,8.0,26.0,49,0.00,,,0.00,meteohub,2014-01-07 18:52:00,
2014-01-07 08:57:00,72.9,52.5,30.05,North,5,9.0,21.0,49,0.00,,,0.00,meteohub,2014-01-07 18:57:00,
2014-01-07 09:02:00,72.9,53.1,30.05,NW,321,15.0,17.0,50,0.00,,,0.00,meteohub,2014-01-07 19:02:00,
2014-01-07 09:07:00,73.0,54.3,30.05,WNW,293,10.0,15.0,52,0.00,,,0.00,meteohub,2014-01-07 19:07:00,
2014-01-07 09:12:00,73.2,55.0,30.05,NW,304,15.0,15.0,53,0.00,,,0.00,meteohub,2014-01-07 19:12:00,
2014-01-07 09:17:00,73.0,55.9,30.05,NW,308,10.0,16.0,55,0.00,,,0.00,meteohub,2014-01-07 19:17:00,
2014-01-07 09:22:00,73.2,57.0,30.05,WNW,290,7.0,19.0,57,0.00,,,0.00,meteohub,2014-01-07 19:22:00,
2014-01-07 09:27:00,73.2,57.0,30.05,NW,307,10.0,19.0,57,0.00,,,0.00,meteohub,2014-01-07 19:27:00,
2014-01-07 09:32:00,73.2,57.6,30.05,WNW,283,19.0,23.0,58,0.00,,,0.00,meteohub,2014-01-07 19:32:00,
2014-01-07 09:37:00,73.4,57.7,30.05,NW,310,8.0,25.0,58,0.00,,,0.00,meteohub,2014-01-07 19:37:00,
2014-01-07 09:42:00,73.6,57.9,30.05,NNW,328,16.0,25.0,58,0.00,,,0.00,meteohub,2014-01-07 19:42:00,
2014-01-07 09:47:00,73.8,58.1,30.05,NNW,335,10.0,25.0,58,0.00,,,0.00,meteohub,2014-01-07 19:47:00,
2014-01-07 09:52:00,73.9,58.6,30.05,NNE,23,11.0,25.0,59,0.00,,,0.00,meteohub,2014-01-07 19:52:00,
2014-01-07 09:57:00,74.3,58.6,30.05,NW,304,13.0,25.0,58,0.00,,,0.00,meteohub,2014-01-07 19:57:00,
2014-01-07 10:02:00,74.5,58.8,30.05,WNW,297,15.0,24.0,58,0.00,,,0.00,meteohub,2014-01-07 20:02:00,
2014-01-07 10:07:00,74.5,58.8,30.05,NNW,338,13.0,24.0,58,0.00,,,0.00,meteohub,2014-01-07 20:07:00,
2014-01-07 10:12:00,74.7,59.9,30.05,NW,323,7.0,24.0,60,0.00,,,0.00,meteohub,2014-01-07 20:12:00,
2014-01-07 10:17:00,74.8,60.1,30.05,NW,314,15.0,23.0,60,0.00,,,0.00,meteohub,2014-01-07 20:17:00,
2014-01-07 10:22:00,75.0,59.7,30.05,NE,36,16.0,22.0,59,0.00,,,0.00,meteohub,2014-01-07 20:22:00,
2014-01-07 10:27:00,75.4,59.5,30.05,NW,323,10.0,23.0,58,0.00,,,0.00,meteohub,2014-01-07 20:27:00,
2014-01-07 10:32:00,75.6,60.6,30.05,NNW,337,16.0,23.0,60,0.00,,,0.00,meteohub,2014-01-07 20:32:00,
2014-01-07 10:37:00,75.2,60.8,30.05,NW,310,9.0,20.0,61,0.00,,,0.00,meteohub,2014-01-07 20:37:00,
2014-01-07 10:42:00,75.4,61.0,30.05,North,351,14.0,26.0,61,0.00,,,0.00,meteohub,2014-01-07 20:42:00,
2014-01-07 10:47:00,75.2,60.8,30.05,NW,322,4.0,26.0,61,0.00,,,0.00,meteohub,2014-01-07 20:47:00,
2014-01-07 10:52:00,74.8,61.9,30.05,NNW,346,5.0,18.0,64,0.00,,,0.00,meteohub,2014-01-07 20:52:00,
2014-01-07 10:57:00,74.8,62.2,30.05,NW,311,9.0,21.0,65,0.00,,,0.00,meteohub,2014-01-07 20:57:00,
2014-01-07 11:02:00,75.0,61.5,30.04,NE,34,14.0,22.0,63,0.00,,,0.00,meteohub,2014-01-07 21:02:00,
2014-01-07 11:07:00,75.4,60.4,30.05,NNW,333,8.0,22.0,60,0.00,,,0.00,meteohub,2014-01-07 21:07:00,
2014-01-07 11:12:00,75.9,61.5,30.05,NNE,28,8.0,23.0,61,0.00,,,0.00,meteohub,2014-01-07 21:12:00,
2014-01-07 11:17:00,75.9,61.0,30.04,NNE,32,21.0,23.0,60,0.00,,,0.00,meteohub,2014-01-07 21:17:00,
2014-01-07 11:22:00,75.9,61.9,30.04,NNE,19,9.0,23.0,62,0.00,,,0.00,meteohub,2014-01-07 21:22:00,
2014-01-07 11:27:00,76.1,61.2,30.03,WNW,294,12.0,22.0,60,0.00,,,0.00,meteohub,2014-01-07 21:27:00,
2014-01-07 11:32:00,76.1,60.8,30.03,NNW,330,6.0,22.0,59,0.00,,,0.00,meteohub,2014-01-07 21:32:00,
2014-01-07 11:37:00,75.9,61.0,30.03,North,0,12.0,21.0,60,0.00,,,0.00,meteohub,2014-01-07 21:37:00,
2014-01-07 11:42:00,75.7,60.8,30.03,NNW,327,6.0,21.0,60,0.00,,,0.00,meteohub,2014-01-07 21:42:00,
2014-01-07 11:47:00,75.6,61.2,30.02,NNE,29,7.0,21.0,61,0.00,,,0.00,meteohub,2014-01-07 21:47:00,
2014-01-07 11:52:00,75.7,59.9,30.02,NNW,329,10.0,21.0,58,0.00,,,0.00,meteohub,2014-01-07 21:52:00,
2014-01-07 11:57:00,75.7,61.3,30.01,NNW,347,9.0,21.0,61,0.00,,,0.00,meteohub,2014-01-07 21:57:00,
2014-01-07 12:02:00,75.7,61.3,30.01,NW,326,8.0,20.0,61,0.00,,,0.00,meteohub,2014-01-07 22:02:00,
2014-01-07 12:07:00,76.5,62.4,30.01,NNW,334,6.0,21.0,62,0.00,,,0.00,meteohub,2014-01-07 22:07:00,
2014-01-07 12:12:00,76.6,62.2,30.01,NNW,338,8.0,21.0,61,0.00,,,0.00,meteohub,2014-01-07 22:12:00,
2014-01-07 12:17:00,76.3,61.0,30.01,NNW,348,4.0,21.0,59,0.00,,,0.00,meteohub,2014-01-07 22:17:00,
2014-01-07 12:22:00,76.5,61.0,30.00,NNE,31,9.0,21.0,59,0.00,,,0.00,meteohub,2014-01-07 22:22:00,
2014-01-07 12:27:00,76.5,61.0,30.00,NNW,335,6.0,19.0,59,0.00,,,0.00,meteohub,2014-01-07 22:27:00,
2014-01-07 12:32:00,76.5,61.0,29.99,NNE,25,7.0,19.0,59,0.00,,,0.00,meteohub,2014-01-07 22:32:00,
2014-01-07 12:37:00,76.6,60.8,29.99,NNE,15,7.0,19.0,58,0.00,,,0.00,meteohub,2014-01-07 22:37:00,
2014-01-07 12:42:00,77.2,60.8,29.98,West,266,1.0,19.0,57,0.00,,,0.00,meteohub,2014-01-07 22:42:00,
2014-01-07 12:47:00,77.0,61.2,29.98,NW,309,9.0,18.0,58,0.00,,,0.00,meteohub,2014-01-07 22:47:00,
2014-01-07 12:52:00,77.4,61.3,29.98,NE,40,7.0,21.0,58,0.00,,,0.00,meteohub,2014-01-07 22:52:00,
2014-01-07 12:57:00,77.4,60.4,29.98,NW,321,3.0,25.0,56,0.00,,,0.00,meteohub,2014-01-07 22:57:00,
2014-01-07 13:02:00,77.4,60.4,29.97,NNW,327,6.0,25.0,56,0.00,,,0.00,meteohub,2014-01-07 23:02:00,
2014-01-07 13:07:00,77.4,61.3,29.97,NNW,327,6.0,25.0,58,0.00,,,0.00,meteohub,2014-01-07 23:07:00,
2014-01-07 13:12:00,77.5,61.5,29.97,North,1,11.0,19.0,58,0.00,,,0.00,meteohub,2014-01-07 23:12:00,
2014-01-07 13:17:00,77.5,60.1,29.97,NW,311,10.0,20.0,55,0.00,,,0.00,meteohub,2014-01-07 23:17:00,
2014-01-07 13:22:00,77.7,60.8,29.97,North,350,11.0,20.0,56,0.00,,,0.00,meteohub,2014-01-07 23:22:00,
2014-01-07 13:27:00,77.5,61.2,29.96,NNE,32,11.0,20.0,57,0.00,,,0.00,meteohub,2014-01-07 23:27:00,
2014-01-07 13:32:00,77.4,62.8,29.96,NW,306,9.0,22.0,61,0.00,,,0.00,meteohub,2014-01-07 23:32:00,
2014-01-07 13:37:00,76.8,62.8,29.96,North,352,11.0,22.0,62,0.00,,,0.00,meteohub,2014-01-07 23:37:00,
2014-01-07 13:42:00,76.8,62.4,29.96,North,352,9.0,22.0,61,0.00,,,0.00,meteohub,2014-01-07 23:42:00,
2014-01-07 13:47:00,76.8,63.3,29.96,NW,309,21.0,23.0,63,0.00,,,0.00,meteohub,2014-01-07 23:47:00,
2014-01-07 13:52:00,76.3,63.1,29.95,North,351,9.0,23.0,64,0.00,,,0.00,meteohub,2014-01-07 23:52:00,
2014-01-07 13:57:00,76.6,62.6,29.95,NW,319,12.0,24.0,62,0.00,,,0.00,meteohub,2014-01-07 23:57:00,
2014-01-07 14:02:00,76.8,61.9,29.95,NW,323,13.0,24.0,60,0.00,,,0.00,meteohub,2014-01-08 00:02:00,
2014-01-07 14:07:00,76.1,62.1,29.94,NW,316,5.0,23.0,62,0.00,,,0.00,meteohub,2014-01-08 00:07:00,
2014-01-07 14:12:00,76.1,62.1,29.94,NNW,328,10.0,23.0,62,0.00,,,0.00,meteohub,2014-01-08 00:12:00,
2014-01-07 14:17:00,76.3,63.1,29.95,NW,321,13.0,23.0,64,0.00,,,0.00,meteohub,2014-01-08 00:17:00,
2014-01-07 14:22:00,75.6,62.6,29.96,NW,315,14.0,23.0,64,0.00,,,0.00,meteohub,2014-01-08 00:22:00,
2014-01-07 14:27:00,74.8,62.8,29.95,NNW,336,18.0,22.0,66,0.00,,,0.00,meteohub,2014-01-08 00:27:00,
2014-01-07 14:32:00,74.7,63.0,29.95,NW,326,7.0,22.0,67,0.00,,,0.00,meteohub,2014-01-08 00:32:00,
2014-01-07 14:37:00,74.8,62.8,29.94,NW,316,15.0,21.0,66,0.00,,,0.00,meteohub,2014-01-08 00:37:00,
2014-01-07 14:42:00,75.6,62.1,29.94,North,9,10.0,28.0,63,0.00,,,0.00,meteohub,2014-01-08 00:42:00,
2014-01-07 14:47:00,76.3,61.0,29.96,ENE,58,5.0,28.0,59,0.00,,,0.00,meteohub,2014-01-08 00:47:00,
2014-01-07 14:52:00,75.9,61.9,29.94,NNE,20,13.0,28.0,62,0.00,,,0.00,meteohub,2014-01-08 00:52:00,
2014-01-07 14:57:00,75.4,61.9,29.95,NE,47,7.0,20.0,63,0.00,,,0.00,meteohub,2014-01-08 00:57:00,
2014-01-07 15:02:00,74.8,61.9,29.95,NE,36,19.0,20.0,64,0.00,,,0.00,meteohub,2014-01-08 01:02:00,
2014-01-07 15:07:00,74.7,61.7,29.96,NE,39,11.0,20.0,64,0.00,,,0.00,meteohub,2014-01-08 01:07:00,
2014-01-07 15:12:00,74.7,61.7,29.96,North,350,10.0,20.0,64,0.00,,,0.00,meteohub,2014-01-08 01:12:00,
2014-01-07 15:17:00,74.5,62.4,29.96,WNW,288,4.0,20.0,66,0.00,,,0.00,meteohub,2014-01-08 01:17:00,
2014-01-07 15:22:00,74.1,61.5,29.96,SE,128,2.0,20.0,65,0.00,,,0.00,meteohub,2014-01-08 01:22:00,
2014-01-07 15:27:00,73.9,61.9,29.96,North,350,3.0,20.0,66,0.00,,,0.00,meteohub,2014-01-08 01:27:00,
2014-01-07 15:32:00,73.9,61.9,29.96,NE,40,3.0,19.0,66,0.00,,,0.00,meteohub,2014-01-08 01:32:00,
2014-01-07 15:37:00,74.5,61.5,29.96,NE,46,10.0,21.0,64,0.00,,,0.00,meteohub,2014-01-08 01:37:00,
2014-01-07 15:42:00,74.8,61.3,29.96,NW,318,6.0,21.0,63,0.00,,,0.00,meteohub,2014-01-08 01:42:00,
2014-01-07 15:47:00,74.8,61.3,29.96,NW,311,7.0,21.0,63,0.00,,,0.00,meteohub,2014-01-08 01:47:00,
2014-01-07 15:52:00,75.2,61.7,29.96,North,11,17.0,21.0,63,0.00,,,0.00,meteohub,2014-01-08 01:52:00,
2014-01-07 15:57:00,75.4,61.9,29.95,NE,37,10.0,21.0,63,0.00,,,0.00,meteohub,2014-01-08 01:57:00,
2014-01-07 16:02:00,75.4,61.5,29.96,NNW,341,13.0,27.0,62,0.00,,,0.00,meteohub,2014-01-08 02:02:00,
2014-01-07 16:07:00,75.6,61.7,29.96,NNW,332,3.0,27.0,62,0.00,,,0.00,meteohub,2014-01-08 02:07:00,
2014-01-07 16:12:00,75.4,61.0,29.96,NNW,340,13.0,27.0,61,0.00,,,0.00,meteohub,2014-01-08 02:12:00,
2014-01-07 16:17:00,75.4,61.0,29.96,North,11,6.0,19.0,61,0.00,,,0.00,meteohub,2014-01-08 02:17:00,
2014-01-07 16:22:00,75.2,61.3,29.97,NNW,345,13.0,21.0,62,0.00,,,0.00,meteohub,2014-01-08 02:22:00,
2014-01-07 16:27:00,75.2,60.8,29.96,NE,34,6.0,21.0,61,0.00,,,0.00,meteohub,2014-01-08 02:27:00,
2014-01-07 16:32:00,75.0,61.2,29.96,NNW,339,10.0,23.0,62,0.00,,,0.00,meteohub,2014-01-08 02:32:00,
2014-01-07 16:37:00,74.8,61.0,29.97,NW,318,8.0,23.0,62,0.00,,,0.00,meteohub,2014-01-08 02:37:00,
2014-01-07 16:42:00,74.7,60.8,29.97,NW,310,9.0,23.0,62,0.00,,,0.00,meteohub,2014-01-08 02:42:00,
2014-01-07 16:47:00,74.5,60.1,29.96,NNW,328,9.0,19.0,61,0.00,,,0.00,meteohub,2014-01-08 02:47:00,
2014-01-07 16:52:00,74.5,60.6,29.97,NNW,335,10.0,24.0,62,0.00,,,0.00,meteohub,2014-01-08 02:52:00,
2014-01-07 16:57:00,74.5,60.1,29.98,NNE,30,20.0,24.0,61,0.00,,,0.00,meteohub,2014-01-08 02:57:00,
2014-01-07 17:02:00,74.1,60.3,29.98,North,11,3.0,24.0,62,0.00,,,0.00,meteohub,2014-01-08 03:02:00,
2014-01-07 17:07:00,74.1,60.3,29.98,NNE,13,6.0,20.0,62,0.00,,,0.00,meteohub,2014-01-08 03:07:00,
2014-01-07 17:12:00,73.9,60.1,29.99,NNE,13,12.0,24.0,62,0.00,,,0.00,meteohub,2014-01-08 03:12:00,
2014-01-07 17:17:00,73.8,60.4,29.99,North,5,14.0,24.0,63,0.00,,,0.00,meteohub,2014-01-08 03:17:00,
2014-01-07 17:22:00,73.6,59.7,29.99,North,6,7.0,24.0,62,0.00,,,0.00,meteohub,2014-01-08 03:22:00,
2014-01-07 17:27:00,73.4,60.1,29.99,NW,323,4.0,19.0,63,0.00,,,0.00,meteohub,2014-01-08 03:27:00,
2014-01-07 17:32:00,73.0,59.7,29.99,North,352,7.0,19.0,63,0.00,,,0.00,meteohub,2014-01-08 03:32:00,
2014-01-07 17:37:00,72.9,59.9,29.99,NNE,16,4.0,18.0,64,0.00,,,0.00,meteohub,2014-01-08 03:37:00,
2014-01-07 17:42:00,72.7,59.7,29.99,NE,49,10.0,18.0,64,0.00,,,0.00,meteohub,2014-01-08 03:42:00,
2014-01-07 17:47:00,72.3,59.5,29.99,NNE,25,2.0,18.0,64,0.00,,,0.00,meteohub,2014-01-08 03:47:00,
2014-01-07 17:52:00,72.1,59.4,29.99,NW,316,5.0,13.0,64,0.00,,,0.00,meteohub,2014-01-08 03:52:00,
2014-01-07 17:57:00,72.0,59.5,29.99,NW,308,4.0,14.0,65,0.00,,,0.00,meteohub,2014-01-08 03:57:00,
2014-01-07 18:02:00,71.6,59.2,29.99,NNW,331,3.0,15.0,65,0.00,,,0.00,meteohub,2014-01-08 04:02:00,
2014-01-07 18:07:00,71.4,59.0,29.99,East,83,3.0,15.0,65,0.00,,,0.00,meteohub,2014-01-08 04:07:00,
2014-01-07 18:12:00,71.2,59.4,30.00,ENE,57,4.0,17.0,66,0.00,,,0.00,meteohub,2014-01-08 04:12:00,
2014-01-07 18:17:00,71.1,59.2,30.00,North,350,7.0,21.0,66,0.00,,,0.00,meteohub,2014-01-08 04:17:00,
2014-01-07 18:22:00,70.9,59.0,30.00,NW,311,7.0,21.0,66,0.00,,,0.00,meteohub,2014-01-08 04:22:00,
2014-01-07 18:27:00,70.7,58.8,30.00,NNE,18,5.0,21.0,66,0.00,,,0.00,meteohub,2014-01-08 04:27:00,
2014-01-07 18:32:00,70.5,58.6,30.00,WNW,290,10.0,16.0,66,0.00,,,0.00,meteohub,2014-01-08 04:32:00,
2014-01-07 18:37:00,70.5,59.0,30.00,NW,307,4.0,13.0,67,0.00,,,0.00,meteohub,2014-01-08 04:37:00,
2014-01-07 18:42:00,70.3,58.5,30.00,North,353,4.0,13.0,66,0.00,,,0.00,meteohub,2014-01-08 04:42:00,
2014-01-07 18:47:00,70.3,58.1,30.01,WNW,301,7.0,12.0,65,0.00,,,0.00,meteohub,2014-01-08 04:47:00,
2014-01-07 18:52:00,70.5,58.6,30.01,NNE,22,4.0,18.0,66,0.00,,,0.00,meteohub,2014-01-08 04:52:00,
2014-01-07 18:57:00,70.3,58.5,30.01,NNE,30,8.0,18.0,66,0.00,,,0.00,meteohub,2014-01-08 04:57:00,
2014-01-07 19:01:00,70.3,58.1,30.01,NNE,15,4.0,18.0,65,0.00,,,0.00,meteohub,2014-01-08 05:01:00,
2014-01-07 19:02:00,70.3,58.1,30.01,East,88,1.0,18.0,65,0.00,,,0.00,meteohub,2014-01-08 05:02:00,
2014-01-07 19:03:00,70.3,58.1,30.01,NW,321,3.0,18.0,65,0.00,,,0.00,meteohub,2014-01-08 05:03:00,
2014-01-07 19:08:00,70.3,58.1,30.01,NNE,25,4.0,18.0,65,0.00,,,0.00,meteohub,2014-01-08 05:08:00,
2014-01-07 19:13:00,70.2,58.3,30.01,NNE,33,1.0,18.0,66,0.00,,,0.00,meteohub,2014-01-08 05:13:00,
2014-01-07 19:18:00,70.0,57.7,30.02,NNE,13,5.0,18.0,65,0.00,,,0.00,meteohub,2014-01-08 05:18:00,
2014-01-07 19:23:00,70.0,57.7,30.01,North,357,4.0,14.0,65,0.00,,,0.00,meteohub,2014-01-08 05:23:00,
2014-01-07 19:29:00,70.0,57.2,30.01,North,356,2.0,14.0,64,0.00,,,0.00,meteohub,2014-01-08 05:29:00,
2014-01-07 19:34:00,70.0,57.2,30.02,NE,41,4.0,15.0,64,0.00,,,0.00,meteohub,2014-01-08 05:34:00,
2014-01-07 19:39:00,69.8,57.0,30.02,NE,34,5.0,15.0,64,0.00,,,0.00,meteohub,2014-01-08 05:39:00,
2014-01-07 19:44:00,69.6,56.8,30.02,ENE,57,5.0,15.0,64,0.00,,,0.00,meteohub,2014-01-08 05:44:00,
2014-01-07 19:49:00,69.6,56.8,30.03,NNE,19,5.0,10.0,64,0.00,,,0.00,meteohub,2014-01-08 05:49:00,
2014-01-07 19:54:00,69.6,57.4,30.03,NNE,16,5.0,10.0,65,0.00,,,0.00,meteohub,2014-01-08 05:54:00,
2014-01-07 19:59:00,69.4,57.6,30.03,WNW,300,2.0,11.0,66,0.00,,,0.00,meteohub,2014-01-08 05:59:00,
2014-01-07 20:04:00,69.3,57.9,30.03,NE,56,2.0,11.0,67,0.00,,,0.00,meteohub,2014-01-08 06:04:00,
2014-01-07 20:09:00,69.3,57.9,30.03,NNE,20,5.0,11.0,67,0.00,,,0.00,meteohub,2014-01-08 06:09:00,
2014-01-07 20:14:00,69.3,57.4,30.03,North,11,2.0,11.0,66,0.00,,,0.00,meteohub,2014-01-08 06:14:00,
2014-01-07 20:19:00,69.1,57.2,30.03,NE,47,2.0,12.0,66,0.00,,,0.00,meteohub,2014-01-08 06:19:00,
2014-01-07 20:24:00,68.7,56.8,30.03,NE,34,1.0,12.0,66,0.00,,,0.00,meteohub,2014-01-08 06:24:00,
2014-01-07 20:29:00,68.5,56.3,30.03,NE,43,3.0,8.0,65,0.00,,,0.00,meteohub,2014-01-08 06:29:00,
2014-01-07 20:35:00,68.2,56.3,30.04,NE,50,2.0,6.0,66,0.00,,,0.00,meteohub,2014-01-08 06:35:00,
2014-01-07 20:40:00,67.8,56.1,30.03,NNE,24,3.0,7.0,66,0.00,,,0.00,meteohub,2014-01-08 06:40:00,
2014-01-07 20:45:00,68.5,56.3,30.03,NE,53,5.0,7.0,65,0.00,,,0.00,meteohub,2014-01-08 06:45:00,
2014-01-07 20:50:00,68.7,56.1,30.03,North,352,4.0,8.0,64,0.00,,,0.00,meteohub,2014-01-08 06:50:00,
2014-01-07 20:55:00,68.5,56.3,30.03,NE,41,2.0,8.0,65,0.00,,,0.00,meteohub,2014-01-08 06:55:00,
2014-01-07 21:00:00,68.4,57.0,30.03,NNE,20,0.0,7.0,67,0.00,,,0.00,meteohub,2014-01-08 07:00:00,
2014-01-07 21:05:00,67.8,56.5,30.03,NW,325,4.0,5.0,67,0.00,,,0.00,meteohub,2014-01-08 07:05:00,
2014-01-07 21:10:00,67.6,56.3,30.03,NW,315,2.0,6.0,67,0.00,,,0.00,meteohub,2014-01-08 07:10:00,
2014-01-07 21:15:00,67.8,55.2,30.03,ENE,59,2.0,7.0,64,0.00,,,0.00,meteohub,2014-01-08 07:15:00,
2014-01-07 21:20:00,68.2,55.0,30.04,ENE,59,4.0,7.0,63,0.00,,,0.00,meteohub,2014-01-08 07:20:00,
2014-01-07 21:25:00,68.0,55.4,30.04,NE,56,3.0,6.0,64,0.00,,,0.00,meteohub,2014-01-08 07:25:00,
2014-01-07 21:30:00,68.4,55.2,30.04,North,354,4.0,10.0,63,0.00,,,0.00,meteohub,2014-01-08 07:30:00,
2014-01-07 21:35:00,68.5,55.0,30.04,NE,37,8.0,12.0,62,0.00,,,0.00,meteohub,2014-01-08 07:35:00,
2014-01-07 21:40:00,68.7,54.7,30.04,NNE,23,4.0,14.0,61,0.00,,,0.00,meteohub,2014-01-08 07:40:00,
2014-01-07 21:45:00,68.7,54.7,30.04,NNW,347,0.0,14.0,61,0.00,,,0.00,meteohub,2014-01-08 07:45:00,
2014-01-07 21:50:00,68.4,55.2,30.04,NNE,27,2.0,14.0,63,0.00,,,0.00,meteohub,2014-01-08 07:50:00,
2014-01-07 21:56:00,68.2,55.0,30.03,ENE,63,1.0,8.0,63,0.00,,,0.00,meteohub,2014-01-08 07:56:00,
2014-01-07 22:01:00,67.6,55.4,30.03,ENE,63,3.0,4.0,65,0.00,,,0.00,meteohub,2014-01-08 08:01:00,
2014-01-07 22:06:00,67.3,55.9,30.03,NE,56,5.0,5.0,67,0.00,,,0.00,meteohub,2014-01-08 08:06:00,
2014-01-07 22:11:00,66.7,56.3,30.03,NE,46,5.0,9.0,69,0.00,,,0.00,meteohub,2014-01-08 08:11:00,
2014-01-07 22:16:00,66.6,56.5,30.04,NE,36,4.0,9.0,70,0.00,,,0.00,meteohub,2014-01-08 08:16:00,
2014-01-07 22:21:00,67.5,55.8,30.04,NNE,32,4.0,11.0,66,0.00,,,0.00,meteohub,2014-01-08 08:21:00,
2014-01-07 22:26:00,68.5,56.3,30.04,NNE,15,4.0,12.0,65,0.00,,,0.00,meteohub,2014-01-08 08:26:00,
2014-01-07 22:31:00,69.1,56.5,30.04,NNW,328,3.0,12.0,64,0.00,,,0.00,meteohub,2014-01-08 08:31:00,
2014-01-07 22:36:00,68.9,56.7,30.03,NW,307,4.0,12.0,65,0.00,,,0.00,meteohub,2014-01-08 08:36:00,
2014-01-07 22:41:00,68.7,56.8,30.02,North,349,10.0,11.0,66,0.00,,,0.00,meteohub,2014-01-08 08:41:00,
2014-01-07 22:46:00,68.5,55.0,30.02,NW,309,2.0,11.0,62,0.00,,,0.00,meteohub,2014-01-08 08:46:00,
2014-01-07 22:51:00,68.4,55.2,30.02,NE,49,5.0,12.0,63,0.00,,,0.00,meteohub,2014-01-08 08:51:00,
2014-01-07 22:56:00,67.8,55.6,30.02,NE,48,14.0,14.0,65,0.00,,,0.00,meteohub,2014-01-08 08:56:00,
2014-01-07 23:01:00,68.5,54.1,30.02,ENE,58,8.0,14.0,60,0.00,,,0.00,meteohub,2014-01-08 09:01:00,
2014-01-07 23:06:00,69.1,53.6,30.03,ENE,68,5.0,21.0,58,0.00,,,0.00,meteohub,2014-01-08 09:06:00,
2014-01-07 23:11:00,69.3,53.8,30.02,NNE,13,13.0,21.0,58,0.00,,,0.00,meteohub,2014-01-08 09:11:00,
2014-01-07 23:16:00,69.4,53.6,30.01,NNE,32,2.0,21.0,57,0.00,,,0.00,meteohub,2014-01-08 09:16:00,
2014-01-07 23:22:00,69.1,53.6,30.01,NE,40,3.0,13.0,58,0.00,,,0.00,meteohub,2014-01-08 09:22:00,
2014-01-07 23:27:00,68.4,54.9,30.00,SE,133,1.0,13.0,62,0.00,,,0.00,meteohub,2014-01-08 09:27:00,
2014-01-07 23:32:00,67.8,56.5,30.00,NNW,335,2.0,11.0,67,0.00,,,0.00,meteohub,2014-01-08 09:32:00,
2014-01-07 23:37:00,67.5,57.0,30.01,NE,54,4.0,9.0,69,0.00,,,0.00,meteohub,2014-01-08 09:37:00,
2014-01-07 23:42:00,66.7,57.0,30.01,ENE,68,4.0,8.0,71,0.00,,,0.00,meteohub,2014-01-08 09:42:00,
2014-01-07 23:47:00,66.7,57.4,30.01,NE,40,3.0,7.0,72,0.00,,,0.00,meteohub,2014-01-08 09:47:00,
2014-01-07 23:52:00,67.1,57.7,30.01,East,86,2.0,7.0,72,0.00,,,0.00,meteohub,2014-01-08 09:52:00,
2014-01-07 23:57:00,67.5,57.7,30.01,ENE,69,0.0,5.0,71,0.00,,,0.00,meteohub,2014-01-08 09:57:00,